Hourly Weather Rukowo

Today, 10 April, Saturday

Time Temperature Precipitation Wind Pressure Humidity
00:00 +4°C° 0.1 mm 4 mps 750 mmHg 87%
01:00 +4°C° 0 mm 4 mps 750 mmHg 87%
02:00 +3°C° 0 mm 4 mps 750 mmHg 89%
03:00 +3°C° 0 mm 4 mps 750 mmHg 90%
04:00 +3°C° 0 mm 3 mps 750 mmHg 91%
05:00 +3°C° 0 mm 4 mps 750 mmHg 88%
06:00 +3°C° 0 mm 4 mps 751 mmHg 86%
07:00 +4°C° 0 mm 4 mps 751 mmHg 83%
08:00 +4°C° 0 mm 4 mps 752 mmHg 75%
09:00 +5°C° 0 mm 4 mps 752 mmHg 68%
10:00 +5°C° 0 mm 4 mps 752 mmHg 60%
11:00 +6°C° 0 mm 4 mps 753 mmHg 55%
12:00 +6°C° 0 mm 4 mps 753 mmHg 51%
13:00 +6°C° 0 mm 4 mps 754 mmHg 46%
14:00 +7°C° 0 mm 3 mps 754 mmHg 46%
15:00 +7°C° 0 mm 3 mps 754 mmHg 46%
16:00 +7°C° 0 mm 3 mps 754 mmHg 45%
17:00 +5°C° 0 mm 2 mps 755 mmHg 52%
18:00 +4°C° 0 mm 2 mps 755 mmHg 58%
19:00 +4°C° 0 mm 1 mps 755 mmHg 65%
20:00 +4°C° 0 mm 1 mps 755 mmHg 66%
21:00 +3°C° 0 mm 1 mps 756 mmHg 67%
22:00 +3°C° 0 mm 1 mps 756 mmHg 68%
23:00 +2°C° 0 mm 2 mps 756 mmHg 69%

Tomorrow, 11 April, Sunday

Time Temperature Precipitation Wind Pressure Humidity
00:00 +2°C° 0 mm 2 mps 756 mmHg 70%
01:00 +2°C° 0 mm 2 mps 756 mmHg 72%
02:00 +1°C° 0 mm 3 mps 756 mmHg 72%
03:00 +1°C° 0 mm 3 mps 756 mmHg 72%
04:00 0°C° 0 mm 4 mps 755 mmHg 72%
05:00 +1°C° 0.2 mm 4 mps 755 mmHg 79%
06:00 +1°C° 0.2 mm 4 mps 755 mmHg 85%
07:00 +1°C° 0.2 mm 5 mps 755 mmHg 91%
08:00 +3°C° 0.4 mm 5 mps 754 mmHg 89%
09:00 +4°C° 0.4 mm 6 mps 754 mmHg 86%
10:00 +7°C° 0.4 mm 6 mps 754 mmHg 83%
11:00 +9°C° 0 mm 6 mps 753 mmHg 74%
12:00 +12°C° 0 mm 7 mps 753 mmHg 64%
13:00 +15°C° 0 mm 7 mps 753 mmHg 54%
14:00 +16°C° 0 mm 6 mps 752 mmHg 53%
15:00 +16°C° 0 mm 6 mps 752 mmHg 53%
16:00 +16°C° 0 mm 5 mps 752 mmHg 52%
17:00 +15°C° 0 mm 5 mps 752 mmHg 56%
18:00 +14°C° 0 mm 5 mps 752 mmHg 60%
19:00 +12°C° 0 mm 4 mps 752 mmHg 65%
20:00 +11°C° 0 mm 4 mps 752 mmHg 65%
21:00 +10°C° 0 mm 5 mps 752 mmHg 66%
22:00 +9°C° 0 mm 5 mps 752 mmHg 67%
23:00 +9°C° 0 mm 5 mps 752 mmHg 70%

Day after tomorrow, 12 April, Monday

Time Temperature Precipitation Wind Pressure Humidity
00:00 +8°C° 0 mm 5 mps 752 mmHg 72%
01:00 +8°C° 0 mm 5 mps 752 mmHg 75%
02:00 +8°C° 0 mm 5 mps 752 mmHg 77%
03:00 +7°C° 0 mm 4 mps 752 mmHg 80%
04:00 +7°C° 0 mm 4 mps 751 mmHg 83%
05:00 +8°C° 0 mm 4 mps 751 mmHg 82%
06:00 +8°C° 0 mm 4 mps 751 mmHg 81%
07:00 +10°C° 0 mm 4 mps 751 mmHg 80%
08:00 +11°C° 0 mm 4 mps 751 mmHg 74%
09:00 +12°C° 0 mm 4 mps 751 mmHg 69%
10:00 +14°C° 0 mm 4 mps 751 mmHg 63%
11:00 +12°C° 0 mm 5 mps 752 mmHg 68%
12:00 +10°C° 0 mm 5 mps 752 mmHg 73%
13:00 +8°C° 0 mm 5 mps 753 mmHg 77%
14:00 +7°C° 0 mm 6 mps 753 mmHg 79%
15:00 +5°C° 0 mm 6 mps 753 mmHg 80%
16:00 +4°C° 0 mm 6 mps 754 mmHg 82%
17:00 +3°C° 0 mm 6 mps 754 mmHg 81%
18:00 +3°C° 0 mm 6 mps 755 mmHg 80%
19:00 +2°C° 0 mm 6 mps 755 mmHg 79%
20:00 +2°C° 0 mm 6 mps 755 mmHg 78%
21:00 +2°C° 0 mm 6 mps 756 mmHg 78%
22:00 +2°C° 0 mm 5 mps 756 mmHg 77%
23:00 +2°C° 0 mm 5 mps 756 mmHg 77%

13 April, Tuesday

Time Temperature Precipitation Wind Pressure Humidity
00:00 +2°C° 0 mm 5 mps 756 mmHg 76%
01:00 +2°C° 0 mm 5 mps 756 mmHg 75%
02:00 +2°C° 0 mm 5 mps 756 mmHg 75%
03:00 +2°C° 0 mm 5 mps 756 mmHg 74%
04:00 +2°C° 0 mm 5 mps 756 mmHg 74%
05:00 +2°C° 0 mm 5 mps 757 mmHg 75%
06:00 +2°C° 0 mm 5 mps 757 mmHg 75%
07:00 +2°C° 0 mm 5 mps 757 mmHg 76%
08:00 +2°C° 0 mm 5 mps 757 mmHg 72%
09:00 +3°C° 0 mm 5 mps 758 mmHg 68%
10:00 +3°C° 0 mm 5 mps 758 mmHg 65%
11:00 +3°C° 0 mm 5 mps 758 mmHg 63%
12:00 +5°C° 0 mm 5 mps 758 mmHg 61%
13:00 +5°C° 0 mm 5 mps 758 mmHg 60%
14:00 +5°C° 0 mm 5 mps 758 mmHg 58%
15:00 +5°C° 0 mm 5 mps 758 mmHg 57%
16:00 +5°C° 0 mm 5 mps 758 mmHg 55%
17:00 +3°C° 0 mm 5 mps 758 mmHg 63%
18:00 +3°C° 0 mm 4 mps 758 mmHg 70%
19:00 +2°C° 0 mm 3 mps 758 mmHg 77%
20:00 +2°C° 0 mm 3 mps 758 mmHg 79%
21:00 +2°C° 0 mm 3 mps 758 mmHg 81%
22:00 +1°C° 0 mm 3 mps 758 mmHg 83%
23:00 +2°C° 0 mm 3 mps 758 mmHg 81%

14 April, Wednesday

Time Temperature Precipitation Wind Pressure Humidity
00:00 +2°C° 0 mm 3 mps 758 mmHg 80%
01:00 +2°C° 0 mm 3 mps 757 mmHg 78%
02:00 +2°C° 0 mm 3 mps 757 mmHg 80%
03:00 +2°C° 0 mm 3 mps 757 mmHg 81%
04:00 +1°C° 0 mm 3 mps 757 mmHg 82%
05:00 +1°C° 0 mm 4 mps 757 mmHg 80%
06:00 +3°C° 0 mm 4 mps 757 mmHg 78%
07:00 +3°C° 0 mm 4 mps 757 mmHg 76%
08:00 +3°C° 0 mm 5 mps 757 mmHg 71%
09:00 +3°C° 0 mm 5 mps 757 mmHg 65%
10:00 +5°C° 0 mm 5 mps 757 mmHg 60%
11:00 +5°C° 0 mm 5 mps 757 mmHg 57%
12:00 +5°C° 0 mm 5 mps 757 mmHg 54%
13:00 +6°C° 0 mm 5 mps 757 mmHg 51%
14:00 +5°C° 0 mm 5 mps 757 mmHg 54%
15:00 +5°C° 0 mm 5 mps 757 mmHg 56%
16:00 +3°C° 0 mm 5 mps 757 mmHg 58%
17:00 +3°C° 0 mm 4 mps 757 mmHg 65%
18:00 +1°C° 0 mm 4 mps 758 mmHg 72%
19:00 +1°C° 0 mm 3 mps 758 mmHg 78%
20:00 +1°C° 0 mm 3 mps 758 mmHg 81%
21:00 +1°C° 0 mm 3 mps 758 mmHg 84%
22:00 0°C° 0 mm 4 mps 758 mmHg 87%
23:00 -1°C° 0 mm 4 mps 758 mmHg 86%

15 April, Thursday

Time Temperature Precipitation Wind Pressure Humidity
00:00 -1°C° 0 mm 4 mps 758 mmHg 86%
01:00 -1°C° 0 mm 4 mps 758 mmHg 85%
02:00 -1°C° 0 mm 4 mps 758 mmHg 84%
03:00 -1°C° 0 mm 4 mps 758 mmHg 83%
04:00 0°C° 0 mm 4 mps 758 mmHg 82%
05:00 0°C° 0 mm 4 mps 758 mmHg 79%
06:00 +1°C° 0 mm 5 mps 758 mmHg 75%
07:00 +2°C° 0 mm 5 mps 759 mmHg 72%
08:00 +3°C° 0 mm 5 mps 759 mmHg 66%
09:00 +3°C° 0 mm 6 mps 759 mmHg 61%
10:00 +4°C° 0 mm 6 mps 759 mmHg 55%
11:00 +4°C° 0 mm 6 mps 759 mmHg 57%
12:00 +4°C° 0 mm 7 mps 759 mmHg 60%
13:00 +5°C° 0 mm 7 mps 759 mmHg 62%
14:00 +4°C° 0 mm 7 mps 760 mmHg 63%
15:00 +4°C° 0 mm 7 mps 760 mmHg 63%
16:00 +4°C° 0 mm 7 mps 760 mmHg 64%
17:00 +3°C° 0 mm 7 mps 760 mmHg 66%
18:00 +2°C° 0 mm 7 mps 760 mmHg 68%
19:00 +2°C° 0 mm 7 mps 760 mmHg 71%
20:00 0°C° 0 mm 7 mps 760 mmHg 73%
21:00 0°C° 0 mm 7 mps 760 mmHg 75%
22:00 0°C° 0 mm 7 mps 760 mmHg 77%
23:00 -1°C° 0 mm 7 mps 760 mmHg 80%
Show more